Location: Poughquag
(41.6090°N, 73.6820°W)
Time: 03:16:43
(UTC-05:00)

Tiangong 1 - Visible Passes

Search period start: 15 December 2017 00:00
Search period end: 25 December 2017 00:00
Orbit: 275 x 302 km, 42.8° (Epoch: 14 December)

Date Brightness Start Highest point End Pass type
(mag) Time Alt. Az. Time Alt. Az. Time Alt. Az.
19 Dec 3.7 05:40:23 10° S 05:41:21 12° SSE 05:42:19 10° SE visible
20 Dec 3.0 05:43:20 13° SSW 05:44:49 20° SSE 05:46:49 10° E visible
21 Dec 1.9 05:47:22 26° SSW 05:48:15 35° SSE 05:50:36 10° E visible
22 Dec 0.8 05:51:03 44° SW 05:51:37 61° SSE 05:54:05 10° E visible
23 Dec 0.3 05:54:29 57° W 05:54:54 88° N 05:57:25 10° ENE visible
24 Dec 0.4 05:57:40 52° WNW 05:58:06 68° N 06:00:36 10° ENE visible
